Time,TemperatureF,DewpointF,PressureIn,WindDirection,WindDirectionDegrees,WindSpeedMPH,WindSpeedGustMPH,Humidity,HourlyPrecipIn,Conditions,Clouds,dailyrainin,SoftwareType,DateUTC
2013-01-05 00:04:00,46.8,45.3,30.40,WSW,247,8.0,15.0,95,0.00,,,0.00,meteohub,2013-01-05 00:04:00,
2013-01-05 00:09:00,46.8,45.3,30.40,WSW,247,6.0,15.0,95,0.00,,,0.00,meteohub,2013-01-05 00:09:00,
2013-01-05 00:14:00,46.8,45.3,30.40,NW,315,5.0,15.0,95,0.00,,,0.00,meteohub,2013-01-05 00:14:00,
2013-01-05 00:20:00,46.8,45.3,30.40,SSW,202,10.0,15.0,95,0.00,,,0.00,meteohub,2013-01-05 00:20:00,
2013-01-05 00:25:00,46.8,45.3,30.40,WSW,247,5.0,12.0,95,0.00,,,0.00,meteohub,2013-01-05 00:25:00,
2013-01-05 00:30:00,46.8,45.3,30.40,SSW,202,6.0,12.0,95,0.00,,,0.00,meteohub,2013-01-05 00:30:00,
2013-01-05 00:35:00,46.8,45.3,30.40,SW,225,9.0,10.0,95,0.00,,,0.00,meteohub,2013-01-05 00:35:00,
2013-01-05 00:40:00,46.8,45.3,30.40,WSW,247,7.0,10.0,95,0.00,,,0.00,meteohub,2013-01-05 00:40:00,
2013-01-05 00:45:00,46.8,45.3,30.40,West,270,11.0,14.0,95,0.00,,,0.00,meteohub,2013-01-05 00:45:00,
2013-01-05 00:50:00,46.8,45.3,30.40,WSW,247,13.0,19.0,95,0.00,,,0.00,meteohub,2013-01-05 00:50:00,
2013-01-05 00:55:00,46.9,45.5,30.40,West,270,13.0,19.0,95,0.00,,,0.00,meteohub,2013-01-05 00:55:00,
2013-01-05 01:01:00,46.9,45.5,30.40,WSW,247,13.0,19.0,95,0.00,,,0.00,meteohub,2013-01-05 01:01:00,
2013-01-05 01:06:00,46.9,45.5,30.40,West,270,8.0,18.0,95,0.00,,,0.00,meteohub,2013-01-05 01:06:00,
2013-01-05 01:11:00,46.9,45.5,30.40,WSW,247,6.0,18.0,95,0.00,,,0.00,meteohub,2013-01-05 01:11:00,
2013-01-05 01:16:00,46.9,45.5,30.40,WSW,247,9.0,16.0,95,0.00,,,0.00,meteohub,2013-01-05 01:16:00,
2013-01-05 01:21:00,46.9,45.5,30.40,WSW,247,6.0,13.0,95,0.00,,,0.00,meteohub,2013-01-05 01:21:00,
2013-01-05 01:26:00,46.9,45.5,30.40,SSW,202,6.0,13.0,95,0.00,,,0.00,meteohub,2013-01-05 01:26:00,
2013-01-05 01:32:00,46.9,45.5,30.40,WSW,247,6.0,13.0,95,0.00,,,0.00,meteohub,2013-01-05 01:32:00,
2013-01-05 01:37:00,46.9,45.5,30.40,SW,225,9.0,13.0,95,0.00,,,0.00,meteohub,2013-01-05 01:37:00,
2013-01-05 01:42:00,46.9,45.5,30.40,WSW,247,7.0,12.0,95,0.00,,,0.00,meteohub,2013-01-05 01:42:00,
2013-01-05 01:47:00,46.9,45.5,30.40,WSW,247,13.0,15.0,95,0.00,,,0.00,meteohub,2013-01-05 01:47:00,
2013-01-05 01:52:00,46.9,45.5,30.40,WSW,247,6.0,15.0,95,0.00,,,0.00,meteohub,2013-01-05 01:52:00,
2013-01-05 01:57:00,46.9,45.5,30.40,WSW,247,8.0,15.0,95,0.00,,,0.00,meteohub,2013-01-05 01:57:00,
2013-01-05 02:02:00,47.1,45.7,30.40,West,270,6.0,15.0,95,0.00,,,0.00,meteohub,2013-01-05 02:02:00,
2013-01-05 02:07:00,47.1,45.7,30.40,WSW,247,5.0,13.0,95,0.00,,,0.00,meteohub,2013-01-05 02:07:00,
2013-01-05 02:12:00,47.1,45.7,30.40,WSW,247,9.0,13.0,95,0.00,,,0.00,meteohub,2013-01-05 02:12:00,
2013-01-05 02:17:00,47.1,45.7,-100.00,WSW,247,6.0,12.0,95,0.00,,,0.00,meteohub,2013-01-05 02:17:00,
2013-01-05 02:23:00,47.1,45.7,30.40,WSW,247,6.0,13.0,95,0.00,,,0.00,meteohub,2013-01-05 02:23:00,
2013-01-05 02:28:00,47.1,45.7,30.40,WSW,247,6.0,13.0,95,0.00,,,0.00,meteohub,2013-01-05 02:28:00,
2013-01-05 02:33:00,47.1,45.7,30.40,WSW,247,4.0,13.0,95,0.00,,,0.00,meteohub,2013-01-05 02:33:00,
2013-01-05 02:38:00,47.1,45.7,30.40,WSW,247,9.0,13.0,95,0.00,,,0.00,meteohub,2013-01-05 02:38:00,
2013-01-05 02:43:00,47.1,45.7,30.40,WSW,247,6.0,11.0,95,0.00,,,0.00,meteohub,2013-01-05 02:43:00,
2013-01-05 02:48:00,47.1,45.7,30.40,WSW,247,8.0,11.0,95,0.00,,,0.00,meteohub,2013-01-05 02:48:00,
2013-01-05 02:53:00,47.1,45.7,30.40,West,270,5.0,10.0,95,0.00,,,0.00,meteohub,2013-01-05 02:53:00,
2013-01-05 02:58:00,47.1,45.7,30.40,West,270,10.0,11.0,95,0.00,,,0.00,meteohub,2013-01-05 02:58:00,
2013-01-05 03:03:00,47.3,45.9,30.37,WSW,247,8.0,15.0,95,0.00,,,0.00,meteohub,2013-01-05 03:03:00,
2013-01-05 03:08:00,47.3,45.9,30.37,WSW,247,10.0,15.0,95,0.00,,,0.00,meteohub,2013-01-05 03:08:00,
2013-01-05 03:14:00,47.3,45.9,30.37,SW,225,8.0,15.0,95,0.00,,,0.00,meteohub,2013-01-05 03:14:00,
2013-01-05 03:19:00,47.3,45.9,30.37,WSW,247,9.0,13.0,95,0.00,,,0.00,meteohub,2013-01-05 03:19:00,
2013-01-05 03:24:00,47.3,45.9,30.37,WSW,247,8.0,13.0,95,0.00,,,0.00,meteohub,2013-01-05 03:24:00,
2013-01-05 03:29:00,47.3,45.9,30.37,WSW,247,9.0,13.0,95,0.00,,,0.00,meteohub,2013-01-05 03:29:00,
2013-01-05 03:34:00,47.3,45.9,30.37,WSW,247,11.0,13.0,95,0.00,,,0.00,meteohub,2013-01-05 03:34:00,
2013-01-05 03:39:00,47.3,45.9,30.37,SW,225,10.0,13.0,95,0.00,,,0.00,meteohub,2013-01-05 03:39:00,
2013-01-05 03:44:00,47.3,45.9,30.37,WSW,247,6.0,13.0,95,0.00,,,0.00,meteohub,2013-01-05 03:44:00,
2013-01-05 03:49:00,47.3,45.9,30.37,WSW,247,6.0,11.0,95,0.00,,,0.00,meteohub,2013-01-05 03:49:00,
2013-01-05 03:54:00,47.3,45.9,30.37,SW,225,6.0,10.0,95,0.00,,,0.00,meteohub,2013-01-05 03:54:00,
2013-01-05 03:59:00,47.3,45.9,30.37,WSW,247,6.0,10.0,95,0.00,,,0.00,meteohub,2013-01-05 03:59:00,
2013-01-05 04:05:00,47.3,45.9,30.37,WSW,247,4.0,10.0,95,0.00,,,0.00,meteohub,2013-01-05 04:05:00,
2013-01-05 04:10:00,47.3,45.9,30.37,WSW,247,6.0,10.0,95,0.00,,,0.00,meteohub,2013-01-05 04:10:00,
2013-01-05 04:15:00,47.3,45.9,30.37,WSW,247,6.0,9.0,95,0.00,,,0.00,meteohub,2013-01-05 04:15:00,
2013-01-05 04:20:00,47.3,45.9,30.37,WSW,247,6.0,11.0,95,0.00,,,0.00,meteohub,2013-01-05 04:20:00,
2013-01-05 04:25:00,47.3,45.9,30.37,WSW,247,5.0,11.0,95,0.00,,,0.00,meteohub,2013-01-05 04:25:00,
2013-01-05 04:30:00,47.3,45.9,30.37,WSW,247,3.0,11.0,95,0.00,,,0.00,meteohub,2013-01-05 04:30:00,
2013-01-05 04:35:00,47.3,45.9,30.37,SSW,202,8.0,9.0,95,0.00,,,0.00,meteohub,2013-01-05 04:35:00,
2013-01-05 04:40:00,47.3,45.9,30.37,SW,225,4.0,9.0,95,0.00,,,0.00,meteohub,2013-01-05 04:40:00,
2013-01-05 04:45:00,47.3,45.9,30.37,SW,225,5.0,9.0,95,0.00,,,0.00,meteohub,2013-01-05 04:45:00,
2013-01-05 04:51:00,47.3,45.9,30.37,SW,225,4.0,9.0,95,0.00,,,0.00,meteohub,2013-01-05 04:51:00,
2013-01-05 04:56:00,47.3,45.9,30.37,SSW,202,5.0,9.0,95,0.00,,,0.00,meteohub,2013-01-05 04:56:00,
2013-01-05 05:00:00,47.3,45.9,30.37,SW,225,5.0,9.0,95,0.00,,,0.00,meteohub,2013-01-05 05:00:00,
2013-01-05 05:01:00,47.3,45.9,30.37,SW,225,5.0,9.0,95,0.00,,,0.00,meteohub,2013-01-05 05:01:00,
2013-01-05 05:04:00,47.1,45.7,30.37,SSW,202,4.0,9.0,95,0.00,,,0.00,meteohub,2013-01-05 05:04:00,
2013-01-05 05:09:00,47.1,45.7,30.37,SW,225,5.0,9.0,95,0.00,,,0.00,meteohub,2013-01-05 05:09:00,
2013-01-05 05:14:00,47.1,45.7,30.37,SW,225,7.0,8.0,95,0.00,,,0.00,meteohub,2013-01-05 05:14:00,
2013-01-05 05:19:00,47.1,45.7,30.37,WSW,247,6.0,8.0,95,0.00,,,0.00,meteohub,2013-01-05 05:19:00,
2013-01-05 05:24:00,47.1,45.7,30.37,SW,225,5.0,8.0,95,0.00,,,0.00,meteohub,2013-01-05 05:24:00,
2013-01-05 05:29:00,47.1,45.7,30.37,SW,225,4.0,8.0,95,0.00,,,0.00,meteohub,2013-01-05 05:29:00,
2013-01-05 05:34:00,47.1,45.7,30.37,SW,225,6.0,8.0,95,0.00,,,0.00,meteohub,2013-01-05 05:34:00,
2013-01-05 05:39:00,47.1,45.7,30.37,SW,225,7.0,9.0,95,0.00,,,0.00,meteohub,2013-01-05 05:39:00,
2013-01-05 05:45:00,47.1,45.7,30.37,SW,225,5.0,9.0,95,0.00,,,0.00,meteohub,2013-01-05 05:45:00,
2013-01-05 05:50:00,47.1,45.7,30.37,WSW,247,4.0,7.0,95,0.00,,,0.00,meteohub,2013-01-05 05:50:00,
2013-01-05 05:55:00,47.1,45.7,30.37,WSW,247,5.0,9.0,95,0.00,,,0.00,meteohub,2013-01-05 05:55:00,
2013-01-05 06:00:00,47.1,45.7,30.37,WSW,247,12.0,12.0,95,0.00,,,0.00,meteohub,2013-01-05 06:00:00,
2013-01-05 06:05:00,47.1,45.7,30.37,SW,225,8.0,12.0,95,0.00,,,0.00,meteohub,2013-01-05 06:05:00,
2013-01-05 06:10:00,47.3,45.9,30.37,SSW,202,8.0,12.0,95,0.00,,,0.00,meteohub,2013-01-05 06:10:00,
2013-01-05 06:15:00,47.3,45.9,30.37,SSW,202,5.0,12.0,95,0.00,,,0.00,meteohub,2013-01-05 06:15:00,
2013-01-05 06:20:00,47.3,45.9,30.37,SW,225,11.0,11.0,95,0.00,,,0.00,meteohub,2013-01-05 06:20:00,
2013-01-05 06:25:00,47.3,45.9,30.37,SSW,202,11.0,13.0,95,0.00,,,0.00,meteohub,2013-01-05 06:25:00,
2013-01-05 06:30:00,47.3,45.9,30.37,WSW,247,13.0,14.0,95,0.00,,,0.00,meteohub,2013-01-05 06:30:00,
2013-01-05 06:36:00,47.5,46.0,30.37,SW,225,10.0,14.0,95,0.00,,,0.00,meteohub,2013-01-05 06:36:00,
2013-01-05 06:41:00,47.5,46.0,30.37,WSW,247,10.0,14.0,95,0.00,,,0.00,meteohub,2013-01-05 06:41:00,
2013-01-05 06:46:00,47.5,46.0,30.37,SW,225,12.0,14.0,95,0.00,,,0.00,meteohub,2013-01-05 06:46:00,
2013-01-05 06:51:00,47.5,46.0,30.37,SW,225,7.0,14.0,95,0.00,,,0.00,meteohub,2013-01-05 06:51:00,
2013-01-05 06:56:00,47.7,46.2,30.37,SW,225,9.0,15.0,95,0.00,,,0.00,meteohub,2013-01-05 06:56:00,
2013-01-05 07:01:00,47.7,46.2,30.37,SSW,202,10.0,15.0,95,0.00,,,0.00,meteohub,2013-01-05 07:01:00,
2013-01-05 07:06:00,47.7,46.2,30.34,WSW,247,8.0,15.0,95,0.00,,,0.00,meteohub,2013-01-05 07:06:00,
2013-01-05 07:11:00,47.7,46.2,30.34,SW,225,9.0,13.0,95,0.00,,,0.00,meteohub,2013-01-05 07:11:00,
2013-01-05 07:17:00,47.7,46.2,30.34,SW,225,11.0,13.0,95,0.00,,,0.00,meteohub,2013-01-05 07:17:00,
2013-01-05 07:22:00,47.7,46.2,30.34,SW,225,11.0,13.0,95,0.00,,,0.00,meteohub,2013-01-05 07:22:00,
2013-01-05 07:27:00,47.7,46.2,30.34,SW,225,10.0,12.0,95,0.00,,,0.00,meteohub,2013-01-05 07:27:00,
2013-01-05 07:32:00,47.7,46.2,30.34,SW,225,8.0,15.0,95,0.00,,,0.00,meteohub,2013-01-05 07:32:00,
2013-01-05 07:37:00,47.7,46.2,30.34,SSW,202,8.0,15.0,95,0.00,,,0.00,meteohub,2013-01-05 07:37:00,
2013-01-05 07:42:00,47.7,46.2,30.34,WSW,247,8.0,15.0,95,0.00,,,0.00,meteohub,2013-01-05 07:42:00,
2013-01-05 07:47:00,47.7,46.2,30.34,SSW,202,7.0,14.0,95,0.00,,,0.00,meteohub,2013-01-05 07:47:00,
2013-01-05 07:52:00,47.7,46.2,30.34,SSW,202,7.0,11.0,95,0.00,,,0.00,meteohub,2013-01-05 07:52:00,
2013-01-05 07:57:00,47.7,46.2,30.34,SSW,202,6.0,10.0,95,0.00,,,0.00,meteohub,2013-01-05 07:57:00,
2013-01-05 08:02:00,47.7,46.2,30.34,SW,225,4.0,9.0,95,0.00,,,0.00,meteohub,2013-01-05 08:02:00,
2013-01-05 08:07:00,47.7,46.2,30.34,SSW,202,6.0,9.0,95,0.00,,,0.00,meteohub,2013-01-05 08:07:00,
2013-01-05 08:12:00,47.7,46.2,30.34,SSW,202,8.0,9.0,95,0.00,,,0.00,meteohub,2013-01-05 08:12:00,
2013-01-05 08:17:00,47.7,46.2,30.34,SW,225,6.0,9.0,95,0.00,,,0.00,meteohub,2013-01-05 08:17:00,
2013-01-05 08:22:00,47.7,46.2,30.34,SSW,202,8.0,9.0,95,0.00,,,0.00,meteohub,2013-01-05 08:22:00,
2013-01-05 08:27:00,47.7,46.2,30.34,SSW,202,4.0,10.0,95,0.00,,,0.00,meteohub,2013-01-05 08:27:00,
2013-01-05 08:32:00,47.7,46.2,30.34,SW,225,6.0,12.0,95,0.00,,,0.00,meteohub,2013-01-05 08:32:00,
2013-01-05 08:37:00,47.8,46.4,30.34,SW,225,6.0,12.0,95,0.00,,,0.00,meteohub,2013-01-05 08:37:00,
2013-01-05 08:42:00,47.8,46.4,30.34,SW,225,6.0,12.0,95,0.00,,,0.00,meteohub,2013-01-05 08:42:00,
2013-01-05 08:47:00,47.8,46.4,30.34,SW,225,6.0,9.0,95,0.00,,,0.00,meteohub,2013-01-05 08:47:00,
2013-01-05 08:52:00,47.8,46.4,30.34,WSW,247,6.0,9.0,95,0.00,,,0.00,meteohub,2013-01-05 08:52:00,
2013-01-05 08:57:00,47.8,46.4,30.34,SW,225,6.0,11.0,95,0.00,,,0.00,meteohub,2013-01-05 08:57:00,
2013-01-05 09:02:00,47.8,46.4,30.34,SW,225,5.0,11.0,95,0.00,,,0.00,meteohub,2013-01-05 09:02:00,
2013-01-05 09:08:00,47.8,46.4,30.34,SSW,202,3.0,11.0,95,0.00,,,0.00,meteohub,2013-01-05 09:08:00,
2013-01-05 09:13:00,47.8,46.4,30.34,SW,225,5.0,11.0,95,0.00,,,0.00,meteohub,2013-01-05 09:13:00,
2013-01-05 09:18:00,47.8,46.4,30.34,SSW,202,4.0,9.0,95,0.00,,,0.00,meteohub,2013-01-05 09:18:00,
2013-01-05 09:23:00,47.8,46.4,30.34,WSW,247,5.0,9.0,95,0.00,,,0.00,meteohub,2013-01-05 09:23:00,
2013-01-05 09:28:00,47.8,46.4,30.34,WNW,292,5.0,8.0,95,0.00,,,0.00,meteohub,2013-01-05 09:28:00,
2013-01-05 09:33:00,47.8,46.4,30.34,SSW,202,5.0,9.0,95,0.00,,,0.00,meteohub,2013-01-05 09:33:00,
2013-01-05 09:38:00,47.8,46.4,30.34,WSW,247,6.0,9.0,95,0.00,,,0.00,meteohub,2013-01-05 09:38:00,
2013-01-05 09:43:00,48.0,46.6,30.34,WSW,247,6.0,9.0,95,0.00,,,0.00,meteohub,2013-01-05 09:43:00,
2013-01-05 09:48:00,48.0,46.6,30.34,SSW,202,6.0,8.0,95,0.00,,,0.00,meteohub,2013-01-05 09:48:00,
2013-01-05 09:53:00,48.0,46.6,30.34,WSW,247,6.0,10.0,95,0.00,,,0.00,meteohub,2013-01-05 09:53:00,
2013-01-05 09:59:00,48.0,46.6,30.34,WSW,247,6.0,10.0,95,0.00,,,0.00,meteohub,2013-01-05 09:59:00,
2013-01-05 10:04:00,48.0,46.6,30.34,SW,225,4.0,11.0,95,0.00,,,0.00,meteohub,2013-01-05 10:04:00,
2013-01-05 10:09:00,48.0,46.4,30.34,SW,225,8.0,11.0,94,0.00,,,0.00,meteohub,2013-01-05 10:09:00,
2013-01-05 10:14:00,48.2,46.6,30.34,WSW,247,9.0,13.0,94,0.00,,,0.00,meteohub,2013-01-05 10:14:00,
2013-01-05 10:19:00,48.2,46.6,30.34,SW,225,6.0,13.0,94,0.00,,,0.00,meteohub,2013-01-05 10:19:00,
2013-01-05 10:24:00,48.2,46.6,30.34,SW,225,6.0,13.0,94,0.00,,,0.00,meteohub,2013-01-05 10:24:00,
2013-01-05 10:29:00,48.2,46.6,30.34,SW,225,6.0,11.0,94,0.00,,,0.00,meteohub,2013-01-05 10:29:00,
2013-01-05 10:34:00,48.2,46.2,30.34,SW,225,6.0,11.0,93,0.00,,,0.00,meteohub,2013-01-05 10:34:00,
2013-01-05 10:39:00,48.2,46.2,30.34,SW,225,5.0,14.0,93,0.00,,,0.00,meteohub,2013-01-05 10:39:00,
2013-01-05 10:44:00,48.2,46.2,30.34,WSW,247,3.0,14.0,93,0.00,,,0.00,meteohub,2013-01-05 10:44:00,
2013-01-05 10:49:00,48.2,46.0,30.34,WSW,247,9.0,14.0,92,0.00,,,0.00,meteohub,2013-01-05 10:49:00,
2013-01-05 10:55:00,48.2,46.0,30.34,SW,225,4.0,15.0,92,0.00,,,0.00,meteohub,2013-01-05 10:55:00,
2013-01-05 11:00:00,48.2,46.0,30.34,WSW,247,7.0,15.0,92,0.00,,,0.00,meteohub,2013-01-05 11:00:00,
2013-01-05 11:05:00,48.2,46.0,30.34,SW,225,6.0,11.0,92,0.00,,,0.00,meteohub,2013-01-05 11:05:00,
2013-01-05 11:10:00,48.2,46.0,30.34,WSW,247,3.0,11.0,92,0.00,,,0.00,meteohub,2013-01-05 11:10:00,
2013-01-05 11:15:00,48.2,46.0,30.34,SW,225,6.0,12.0,92,0.00,,,0.00,meteohub,2013-01-05 11:15:00,
2013-01-05 11:20:00,48.2,45.7,30.34,SW,225,12.0,12.0,91,0.00,,,0.00,meteohub,2013-01-05 11:20:00,
2013-01-05 11:25:00,48.2,45.7,30.34,SW,225,9.0,14.0,91,0.00,,,0.00,meteohub,2013-01-05 11:25:00,
2013-01-05 11:30:00,48.2,45.7,30.34,SSW,202,6.0,14.0,91,0.00,,,0.00,meteohub,2013-01-05 11:30:00,
2013-01-05 11:35:00,48.2,45.7,30.31,SSW,202,7.0,14.0,91,0.00,,,0.00,meteohub,2013-01-05 11:35:00,
2013-01-05 11:40:00,48.2,45.7,30.31,WSW,247,11.0,12.0,91,0.00,,,0.00,meteohub,2013-01-05 11:40:00,
2013-01-05 11:46:00,48.2,45.7,30.31,SW,225,5.0,12.0,91,0.00,,,0.00,meteohub,2013-01-05 11:46:00,
2013-01-05 11:51:00,48.2,45.3,30.31,SW,225,6.0,11.0,90,0.00,,,0.00,meteohub,2013-01-05 11:51:00,
2013-01-05 11:56:00,48.2,45.7,30.31,WSW,247,9.0,11.0,91,0.00,,,0.00,meteohub,2013-01-05 11:56:00,
2013-01-05 12:01:00,48.0,45.5,30.31,SW,225,6.0,11.0,91,0.00,,,0.00,meteohub,2013-01-05 12:01:00,
2013-01-05 12:06:00,48.0,45.5,30.31,WSW,247,6.0,12.0,91,0.00,,,0.00,meteohub,2013-01-05 12:06:00,
2013-01-05 12:11:00,48.0,45.1,30.31,SW,225,6.0,12.0,90,0.00,,,0.00,meteohub,2013-01-05 12:11:00,
2013-01-05 12:16:00,48.0,45.1,30.31,SW,225,6.0,13.0,90,0.00,,,0.00,meteohub,2013-01-05 12:16:00,
2013-01-05 12:21:00,47.8,45.0,30.31,WSW,247,9.0,13.0,90,0.00,,,0.00,meteohub,2013-01-05 12:21:00,
2013-01-05 12:26:00,48.0,45.0,30.31,SW,225,6.0,14.0,89,0.00,,,0.00,meteohub,2013-01-05 12:26:00,
2013-01-05 12:32:00,48.0,45.0,30.31,SW,225,6.0,14.0,89,0.00,,,0.00,meteohub,2013-01-05 12:32:00,
2013-01-05 12:37:00,48.0,45.0,30.31,SSW,202,12.0,15.0,89,0.00,,,0.00,meteohub,2013-01-05 12:37:00,
2013-01-05 12:42:00,48.0,45.0,30.31,SW,225,13.0,17.0,89,0.00,,,0.00,meteohub,2013-01-05 12:42:00,
2013-01-05 12:47:00,48.0,45.0,30.31,SW,225,11.0,17.0,89,0.00,,,0.00,meteohub,2013-01-05 12:47:00,
2013-01-05 12:52:00,48.2,45.1,30.31,SW,225,11.0,17.0,89,0.00,,,0.00,meteohub,2013-01-05 12:52:00,
2013-01-05 12:57:00,48.2,45.1,30.31,SW,225,9.0,16.0,89,0.00,,,0.00,meteohub,2013-01-05 12:57:00,
2013-01-05 13:02:00,48.2,45.1,30.31,SW,225,6.0,16.0,89,0.00,,,0.00,meteohub,2013-01-05 13:02:00,
2013-01-05 13:07:00,48.2,45.1,30.31,WSW,247,11.0,13.0,89,0.00,,,0.00,meteohub,2013-01-05 13:07:00,
2013-01-05 13:12:00,48.2,45.1,30.31,WSW,247,10.0,14.0,89,0.00,,,0.00,meteohub,2013-01-05 13:12:00,
2013-01-05 13:17:00,48.4,45.3,30.31,WSW,247,13.0,14.0,89,0.00,,,0.00,meteohub,2013-01-05 13:17:00,
2013-01-05 13:22:00,48.4,45.5,30.28,SW,225,9.0,14.0,90,0.00,,,0.00,meteohub,2013-01-05 13:22:00,
2013-01-05 13:28:00,48.4,45.5,30.28,WSW,247,6.0,14.0,90,0.00,,,0.00,meteohub,2013-01-05 13:28:00,
2013-01-05 13:33:00,48.6,45.7,30.28,WSW,247,4.0,14.0,90,0.00,,,0.00,meteohub,2013-01-05 13:33:00,
2013-01-05 13:38:00,48.6,45.7,30.28,SW,225,9.0,14.0,90,0.00,,,0.00,meteohub,2013-01-05 13:38:00,
2013-01-05 13:43:00,48.6,45.7,30.28,SW,225,10.0,11.0,90,0.00,,,0.00,meteohub,2013-01-05 13:43:00,
2013-01-05 13:48:00,48.6,45.7,30.28,WSW,247,9.0,13.0,90,0.00,,,0.00,meteohub,2013-01-05 13:48:00,
2013-01-05 13:53:00,48.6,45.7,30.28,SW,225,11.0,14.0,90,0.00,,,0.00,meteohub,2013-01-05 13:53:00,
2013-01-05 13:58:00,48.7,45.9,30.28,WSW,247,8.0,14.0,90,0.00,,,0.00,meteohub,2013-01-05 13:58:00,
2013-01-05 14:03:00,48.7,45.9,30.28,SSW,202,9.0,14.0,90,0.00,,,0.00,meteohub,2013-01-05 14:03:00,
2013-01-05 14:09:00,48.7,45.7,30.28,SW,225,11.0,15.0,89,0.00,,,0.00,meteohub,2013-01-05 14:09:00,
2013-01-05 14:14:00,48.6,45.5,30.28,WSW,247,7.0,15.0,89,0.00,,,0.00,meteohub,2013-01-05 14:14:00,
2013-01-05 14:19:00,48.7,45.9,30.28,WSW,247,13.0,15.0,90,0.00,,,0.00,meteohub,2013-01-05 14:19:00,
2013-01-05 14:24:00,48.7,45.9,30.28,WNW,292,6.0,14.0,90,0.00,,,0.00,meteohub,2013-01-05 14:24:00,
2013-01-05 14:29:00,48.7,45.9,30.28,SW,225,5.0,15.0,90,0.00,,,0.00,meteohub,2013-01-05 14:29:00,
2013-01-05 14:34:00,48.7,45.9,30.28,WSW,247,13.0,15.0,90,0.00,,,0.00,meteohub,2013-01-05 14:34:00,
2013-01-05 14:39:00,48.7,45.9,30.28,WSW,247,9.0,15.0,90,0.00,,,0.00,meteohub,2013-01-05 14:39:00,
2013-01-05 14:44:00,48.7,46.2,30.28,SW,225,10.0,16.0,91,0.00,,,0.00,meteohub,2013-01-05 14:44:00,
2013-01-05 14:49:00,48.9,46.4,30.28,WSW,247,13.0,16.0,91,0.00,,,0.00,meteohub,2013-01-05 14:49:00,
2013-01-05 14:54:00,48.9,46.4,30.28,WSW,247,13.0,16.0,91,0.00,,,0.00,meteohub,2013-01-05 14:54:00,
2013-01-05 15:00:00,49.1,46.2,30.28,SW,225,8.0,17.0,90,0.00,,,0.00,meteohub,2013-01-05 15:00:00,
2013-01-05 15:05:00,49.1,46.6,30.25,SW,225,10.0,17.0,91,0.00,,,0.00,meteohub,2013-01-05 15:05:00,
2013-01-05 15:10:00,49.1,46.6,30.25,WSW,247,10.0,15.0,91,0.00,,,0.00,meteohub,2013-01-05 15:10:00,
2013-01-05 15:15:00,49.1,46.6,30.25,WSW,247,11.0,15.0,91,0.00,,,0.00,meteohub,2013-01-05 15:15:00,
2013-01-05 15:20:00,49.1,46.6,30.25,WSW,247,9.0,15.0,91,0.00,,,0.00,meteohub,2013-01-05 15:20:00,
2013-01-05 15:25:00,49.1,46.6,30.25,SW,225,13.0,15.0,91,0.00,,,0.00,meteohub,2013-01-05 15:25:00,
2013-01-05 15:30:00,48.9,46.0,30.25,SW,225,8.0,15.0,90,0.00,,,0.00,meteohub,2013-01-05 15:30:00,
2013-01-05 15:35:00,48.9,46.4,30.25,SW,225,7.0,15.0,91,0.00,,,0.00,meteohub,2013-01-05 15:35:00,
2013-01-05 15:40:00,48.9,46.4,30.25,WSW,247,8.0,15.0,91,0.00,,,0.00,meteohub,2013-01-05 15:40:00,
2013-01-05 15:45:00,48.9,46.4,30.25,SW,225,6.0,12.0,91,0.00,,,0.00,meteohub,2013-01-05 15:45:00,
2013-01-05 15:50:00,48.9,46.4,30.25,SW,225,9.0,12.0,91,0.00,,,0.00,meteohub,2013-01-05 15:50:00,
2013-01-05 15:56:00,48.9,46.4,30.25,SSW,202,11.0,16.0,91,0.00,,,0.00,meteohub,2013-01-05 15:56:00,
2013-01-05 16:01:00,48.9,46.4,30.25,SW,225,8.0,16.0,91,0.00,,,0.00,meteohub,2013-01-05 16:01:00,
2013-01-05 16:06:00,48.9,46.4,30.25,WSW,247,8.0,16.0,91,0.00,,,0.00,meteohub,2013-01-05 16:06:00,
2013-01-05 16:11:00,48.9,46.4,30.25,WSW,247,6.0,15.0,91,0.00,,,0.00,meteohub,2013-01-05 16:11:00,
2013-01-05 16:16:00,48.7,46.2,30.25,SW,225,13.0,13.0,91,0.00,,,0.00,meteohub,2013-01-05 16:16:00,
2013-01-05 16:21:00,48.7,46.2,30.25,SW,225,10.0,13.0,91,0.00,,,0.00,meteohub,2013-01-05 16:21:00,
2013-01-05 16:26:00,48.7,46.2,30.25,SW,225,6.0,13.0,91,0.00,,,0.00,meteohub,2013-01-05 16:26:00,
2013-01-05 16:31:00,48.7,46.2,30.25,SSW,202,10.0,13.0,91,0.00,,,0.00,meteohub,2013-01-05 16:31:00,
2013-01-05 16:36:00,48.9,46.4,30.25,SW,225,9.0,18.0,91,0.00,,,0.00,meteohub,2013-01-05 16:36:00,
2013-01-05 16:41:00,48.9,46.4,30.25,SW,225,6.0,18.0,91,0.00,,,0.00,meteohub,2013-01-05 16:41:00,
2013-01-05 16:47:00,48.9,46.4,30.25,WSW,247,6.0,18.0,91,0.00,,,0.00,meteohub,2013-01-05 16:47:00,
2013-01-05 16:52:00,48.9,46.4,30.25,WSW,247,6.0,16.0,91,0.00,,,0.00,meteohub,2013-01-05 16:52:00,
2013-01-05 16:57:00,48.9,46.4,30.25,SSW,202,7.0,15.0,91,0.00,,,0.00,meteohub,2013-01-05 16:57:00,
2013-01-05 17:02:00,48.7,46.2,30.25,WSW,247,6.0,15.0,91,0.00,,,0.00,meteohub,2013-01-05 17:02:00,
2013-01-05 17:07:00,48.7,46.2,30.25,SW,225,17.0,17.0,91,0.00,,,0.00,meteohub,2013-01-05 17:07:00,
2013-01-05 17:12:00,48.7,46.2,30.25,SW,225,8.0,17.0,91,0.00,,,0.00,meteohub,2013-01-05 17:12:00,
2013-01-05 17:17:00,48.9,46.4,30.25,SW,225,8.0,17.0,91,0.00,,,0.00,meteohub,2013-01-05 17:17:00,
2013-01-05 17:22:00,48.9,46.4,30.25,SW,225,10.0,17.0,91,0.00,,,0.00,meteohub,2013-01-05 17:22:00,
2013-01-05 17:27:00,48.9,46.4,30.25,SSW,202,13.0,17.0,91,0.00,,,0.00,meteohub,2013-01-05 17:27:00,
2013-01-05 17:32:00,48.9,46.8,30.25,SSW,202,11.0,17.0,92,0.00,,,0.00,meteohub,2013-01-05 17:32:00,
2013-01-05 17:37:00,48.9,46.8,30.25,WSW,247,10.0,20.0,92,0.00,,,0.00,meteohub,2013-01-05 17:37:00,
2013-01-05 17:42:00,48.7,46.8,30.25,SW,225,8.0,20.0,93,0.00,,,0.00,meteohub,2013-01-05 17:42:00,
2013-01-05 17:47:00,48.7,47.1,30.25,SW,225,9.0,20.0,94,0.00,,,0.00,meteohub,2013-01-05 17:47:00,
2013-01-05 17:52:00,48.7,47.1,30.25,SSW,202,8.0,15.0,94,0.00,,,0.00,meteohub,2013-01-05 17:52:00,
2013-01-05 17:57:00,48.6,46.9,30.25,SW,225,6.0,17.0,94,0.00,,,0.00,meteohub,2013-01-05 17:57:00,
2013-01-05 18:02:00,48.6,47.1,30.25,WSW,247,10.0,17.0,95,0.00,,,0.00,meteohub,2013-01-05 18:02:00,
2013-01-05 18:07:00,48.4,46.9,30.25,SSW,202,4.0,17.0,95,0.01,,,0.01,meteohub,2013-01-05 18:07:00,
2013-01-05 18:12:00,48.4,46.9,30.25,SW,225,5.0,13.0,95,0.01,,,0.01,meteohub,2013-01-05 18:12:00,
2013-01-05 18:17:00,48.4,46.9,30.25,SW,225,8.0,13.0,95,0.02,,,0.02,meteohub,2013-01-05 18:17:00,
2013-01-05 18:22:00,48.2,46.8,30.25,SW,225,8.0,13.0,95,0.02,,,0.02,meteohub,2013-01-05 18:22:00,
2013-01-05 18:27:00,48.2,46.8,30.25,SSW,202,8.0,11.0,95,0.02,,,0.02,meteohub,2013-01-05 18:27:00,
2013-01-05 18:33:00,48.2,47.1,30.25,SW,225,6.0,12.0,96,0.02,,,0.02,meteohub,2013-01-05 18:33:00,
2013-01-05 18:38:00,48.4,47.3,30.25,WSW,247,9.0,13.0,96,0.02,,,0.02,meteohub,2013-01-05 18:38:00,
2013-01-05 18:43:00,48.2,47.1,30.25,SW,225,9.0,13.0,96,0.02,,,0.02,meteohub,2013-01-05 18:43:00,
2013-01-05 18:48:00,48.2,47.1,30.25,SW,225,7.0,13.0,96,0.02,,,0.02,meteohub,2013-01-05 18:48:00,
2013-01-05 18:53:00,48.4,47.3,30.25,WSW,247,12.0,13.0,96,0.02,,,0.02,meteohub,2013-01-05 18:53:00,
2013-01-05 18:58:00,48.4,47.3,30.25,SW,225,12.0,15.0,96,0.02,,,0.02,meteohub,2013-01-05 18:58:00,
2013-01-05 19:03:00,48.4,47.5,30.25,SSW,202,14.0,15.0,97,0.02,,,0.02,meteohub,2013-01-05 19:03:00,
2013-01-05 19:08:00,48.4,47.5,30.25,WSW,247,10.0,17.0,97,0.01,,,0.02,meteohub,2013-01-05 19:08:00,
2013-01-05 19:13:00,48.6,47.7,30.25,SW,225,12.0,17.0,97,0.01,,,0.02,meteohub,2013-01-05 19:13:00,
2013-01-05 19:18:00,48.6,47.7,30.25,SW,225,8.0,17.0,97,0.00,,,0.02,meteohub,2013-01-05 19:18:00,
2013-01-05 19:24:00,48.6,47.7,30.25,SW,225,8.0,17.0,97,0.00,,,0.02,meteohub,2013-01-05 19:24:00,
2013-01-05 19:29:00,48.6,47.7,30.25,SW,225,9.0,15.0,97,0.00,,,0.02,meteohub,2013-01-05 19:29:00,
2013-01-05 19:34:00,48.6,47.7,30.25,WSW,247,11.0,21.0,97,0.00,,,0.02,meteohub,2013-01-05 19:34:00,
2013-01-05 19:39:00,48.6,47.7,30.25,WSW,247,7.0,21.0,97,0.00,,,0.02,meteohub,2013-01-05 19:39:00,
2013-01-05 19:44:00,48.6,47.7,30.25,WSW,247,11.0,21.0,97,0.00,,,0.02,meteohub,2013-01-05 19:44:00,
2013-01-05 19:49:00,48.6,47.7,30.28,WSW,247,8.0,19.0,97,0.00,,,0.02,meteohub,2013-01-05 19:49:00,
2013-01-05 19:54:00,48.6,47.7,30.28,SW,225,10.0,19.0,97,0.00,,,0.02,meteohub,2013-01-05 19:54:00,
2013-01-05 19:59:00,48.7,47.8,30.28,WSW,247,11.0,14.0,97,0.00,,,0.02,meteohub,2013-01-05 19:59:00,
2013-01-05 20:04:00,48.7,47.8,30.28,WSW,247,10.0,22.0,97,0.00,,,0.02,meteohub,2013-01-05 20:04:00,
2013-01-05 20:09:00,48.7,47.8,30.28,WSW,247,8.0,22.0,97,0.00,,,0.02,meteohub,2013-01-05 20:09:00,
2013-01-05 20:15:00,48.7,47.8,30.28,WSW,247,8.0,17.0,97,0.00,,,0.03,meteohub,2013-01-05 20:15:00,
2013-01-05 20:20:00,48.7,47.8,30.28,WSW,247,10.0,17.0,97,0.00,,,0.03,meteohub,2013-01-05 20:20:00,
2013-01-05 20:25:00,48.7,47.8,30.28,WSW,247,9.0,17.0,97,0.00,,,0.03,meteohub,2013-01-05 20:25:00,
2013-01-05 20:30:00,48.7,47.8,30.28,WSW,247,7.0,15.0,97,0.00,,,0.03,meteohub,2013-01-05 20:30:00,
2013-01-05 20:35:00,48.7,47.8,30.28,WSW,247,8.0,14.0,97,0.00,,,0.03,meteohub,2013-01-05 20:35:00,
2013-01-05 20:40:00,48.7,47.8,30.28,WSW,247,11.0,14.0,97,0.00,,,0.03,meteohub,2013-01-05 20:40:00,
2013-01-05 20:45:00,48.7,47.8,30.28,West,270,7.0,15.0,97,0.00,,,0.03,meteohub,2013-01-05 20:45:00,
2013-01-05 20:50:00,48.7,47.8,30.28,WSW,247,6.0,15.0,97,0.00,,,0.03,meteohub,2013-01-05 20:50:00,
2013-01-05 20:55:00,48.7,47.8,30.28,SW,225,6.0,15.0,97,0.00,,,0.03,meteohub,2013-01-05 20:55:00,
2013-01-05 21:00:00,48.7,47.8,30.28,West,270,7.0,13.0,97,0.00,,,0.03,meteohub,2013-01-05 21:00:00,
2013-01-05 21:06:00,48.7,47.8,30.28,West,270,12.0,13.0,97,0.00,,,0.03,meteohub,2013-01-05 21:06:00,
2013-01-05 21:11:00,48.6,47.7,30.28,WSW,247,6.0,13.0,97,0.00,,,0.03,meteohub,2013-01-05 21:11:00,
2013-01-05 21:16:00,48.6,47.7,30.28,WSW,247,9.0,15.0,97,0.00,,,0.03,meteohub,2013-01-05 21:16:00,
2013-01-05 21:21:00,48.6,47.7,30.28,WSW,247,14.0,15.0,97,0.00,,,0.03,meteohub,2013-01-05 21:21:00,
2013-01-05 21:26:00,48.6,47.7,30.28,WSW,247,6.0,15.0,97,0.00,,,0.03,meteohub,2013-01-05 21:26:00,
2013-01-05 21:31:00,48.6,47.7,30.28,WSW,247,12.0,15.0,97,0.00,,,0.03,meteohub,2013-01-05 21:31:00,
2013-01-05 21:36:00,48.6,47.7,30.31,WSW,247,10.0,15.0,97,0.00,,,0.03,meteohub,2013-01-05 21:36:00,
2013-01-05 21:42:00,48.6,47.7,30.31,West,270,10.0,14.0,97,0.00,,,0.03,meteohub,2013-01-05 21:42:00,
2013-01-05 21:47:00,48.6,47.7,30.31,WSW,247,10.0,13.0,97,0.00,,,0.03,meteohub,2013-01-05 21:47:00,
2013-01-05 21:52:00,48.6,47.7,30.28,WSW,247,15.0,15.0,97,0.00,,,0.03,meteohub,2013-01-05 21:52:00,
2013-01-05 21:57:00,48.6,47.7,30.28,WSW,247,10.0,18.0,97,0.00,,,0.03,meteohub,2013-01-05 21:57:00,
2013-01-05 22:02:00,48.4,47.5,30.28,WSW,247,8.0,18.0,97,0.00,,,0.03,meteohub,2013-01-05 22:02:00,
2013-01-05 22:07:00,48.2,47.3,30.28,WSW,247,7.0,18.0,97,0.00,,,0.03,meteohub,2013-01-05 22:07:00,
2013-01-05 22:12:00,48.0,47.1,30.28,WSW,247,17.0,17.0,97,0.00,,,0.03,meteohub,2013-01-05 22:12:00,
2013-01-05 22:17:00,47.8,46.9,30.28,WSW,247,13.0,20.0,97,0.00,,,0.03,meteohub,2013-01-05 22:17:00,
2013-01-05 22:22:00,47.7,46.9,30.28,WSW,247,10.0,20.0,97,0.00,,,0.03,meteohub,2013-01-05 22:22:00,
2013-01-05 22:27:00,47.5,46.8,30.28,WSW,247,11.0,20.0,97,0.00,,,0.03,meteohub,2013-01-05 22:27:00,
2013-01-05 22:32:00,47.3,46.6,30.28,WSW,247,8.0,18.0,97,0.00,,,0.03,meteohub,2013-01-05 22:32:00,
2013-01-05 22:37:00,47.3,46.6,30.31,WSW,247,11.0,15.0,97,0.00,,,0.03,meteohub,2013-01-05 22:37:00,
2013-01-05 22:42:00,47.1,46.4,30.31,WSW,247,9.0,15.0,97,0.00,,,0.03,meteohub,2013-01-05 22:42:00,
2013-01-05 22:47:00,46.9,46.2,30.31,SW,225,10.0,13.0,97,0.00,,,0.03,meteohub,2013-01-05 22:47:00,
2013-01-05 22:52:00,46.8,46.0,30.31,WSW,247,10.0,13.0,97,0.00,,,0.03,meteohub,2013-01-05 22:52:00,
2013-01-05 22:57:00,46.6,45.9,30.31,WSW,247,6.0,18.0,97,0.00,,,0.03,meteohub,2013-01-05 22:57:00,
2013-01-05 23:02:00,46.6,45.9,30.31,SW,225,11.0,18.0,97,0.00,,,0.03,meteohub,2013-01-05 23:02:00,
2013-01-05 23:07:00,46.4,45.7,30.31,WSW,247,8.0,18.0,97,0.00,,,0.03,meteohub,2013-01-05 23:07:00,
2013-01-05 23:12:00,46.2,45.5,30.31,SW,225,8.0,15.0,97,0.00,,,0.03,meteohub,2013-01-05 23:12:00,
2013-01-05 23:17:00,46.2,45.5,30.31,WSW,247,11.0,15.0,97,0.00,,,0.03,meteohub,2013-01-05 23:17:00,
2013-01-05 23:22:00,46.0,45.3,30.31,West,270,11.0,15.0,97,0.00,,,0.03,meteohub,2013-01-05 23:22:00,
2013-01-05 23:28:00,46.0,45.3,30.31,WNW,292,9.0,15.0,97,0.00,,,0.03,meteohub,2013-01-05 23:28:00,
2013-01-05 23:33:00,45.9,45.1,30.31,WSW,247,7.0,17.0,97,0.00,,,0.03,meteohub,2013-01-05 23:33:00,
2013-01-05 23:38:00,45.9,44.8,30.31,WNW,292,10.0,17.0,96,0.00,,,0.03,meteohub,2013-01-05 23:38:00,
2013-01-05 23:43:00,45.7,44.6,30.31,NW,315,6.0,17.0,96,0.00,,,0.03,meteohub,2013-01-05 23:43:00,
2013-01-05 23:48:00,45.5,44.4,30.31,West,270,4.0,11.0,96,0.00,,,0.03,meteohub,2013-01-05 23:48:00,
2013-01-05 23:53:00,45.3,44.2,30.31,WNW,292,4.0,10.0,96,0.00,,,0.03,meteohub,2013-01-05 23:53:00,
2013-01-05 23:58:00,45.1,44.1,30.31,WSW,247,6.0,10.0,96,0.00,,,0.03,meteohub,2013-01-05 23:58:00,